Location: Newark
(43.6583°N, 1.6617°E)
Time: 21:11:14
(UTC+00:00)

Courier 1B - Pass Details

Date: 25 August 2019
Orbit: 962 x 1209 km, 28.3° (Epoch: 19 October)

Event Time Altitude Azimuth Distance (km) Brightness Sun altitude
Rises 20:15:50 0° 251° (WSW) 3,705 11.1 -16.3°
Reaches altitude 10° 20:19:52 10° 228° (SW) 2,719 10.0 -17.0°
Maximum altitude 20:23:12 15° 197° (SSW) 2,382 9.4 -17.5°
Enters shadow 20:25:25 12° 175° (S) 2,517 9.3 -17.8°
Drops below altitude 10° 20:26:31 10° 166° (SSE) 2,684 - -17.9°
Sets 20:30:28 0° 143° (SE) 3,627 - -18.5°
